Weather History for Mount Pleasant, TX

Change the Weather History Date:

Monday, September 9, 2013

  Actual Average (KGGG) Record (KGGG)
Temperature  
Mean Temperature 82 °F 78 °F  
Max Temperature 97 °F 90 °F 103 °F (1939)
Min Temperature 66 °F 67 °F 51 °F (2011)
Degree Days  
Heating Degree Days 0 0  
Month to date heating degree days 0  
Since 1 July heating degree days 0  
Cooling Degree Days 16 13  
Month to date cooling degree days 131  
Year to date cooling degree days 2071  
Growing Degree Days 32 (Base 50)    
Moisture  
Dew Point 58 °F    
Average Humidity 49    
Maximum Humidity 88    
Minimum Humidity 17    
Precipitation  
Precipitation 0.00 in 0.11 in 1.82 in (1974)
Month to date precipitation 0.95  
Year to date precipitation 31.60  
Snow  
Snow 0.00 in - - ()
Month to date snowfall  
Since 1 July snowfall  
Since 1 September snowfall  
Snow Depth -    
Sea Level Pressure  
Sea Level Pressure 29.99 in    
Wind  
Wind Speed 2 mph (SE)    
Max Wind Speed 13 mph    
Max Gust Speed 17 mph    
Visibility 10 miles    
Events      
T = Trace of Precipitation, MM = Missing Value Source: NWS Daily Summary

Daily Weather History Graph

Daily Weather History Graph

Search for Another Location

Airport:

Trip Planner

Search our weather history database for the weather conditions in past years. The results will help you decide how hot, cold, wet, or windy it might be!

Date:

Astronomy

Sep. 09, 2013 Rise Set
Actual Time 6:59 AM CDT 7:33 PM CDT
Civil Twilight 6:34 AM CDT 7:58 PM CDT
Nautical Twilight 6:05 AM CDT 8:28 PM CDT
Astronomical Twilight 5:35 AM CDT 8:57 PM CDT
Moon 11:06 AM CDT (9/9) 10:08 PM CDT (9/9)
Length of Visible Light 13h 24m
Length of Day
12h 34m
Waxing Crescent, 19% of the Moon is Illuminated
Sep 9
Waxing Crescent
Sep 12
First Quarter
Sep 19
Full
Sep 26
Last Quarter
Oct 4
New

Hourly Weather History & Observations

Time (CDT) Temp. Heat Index Dew Point Humidity Pressure Visibility Wind Dir Wind Speed Gust Speed Precip Events Conditions
12:15 AM 78.3 °F - 60.1 °F 53% 29.95 in 10.0 mi Calm Calm - N/A   Clear
12:35 AM 77.5 °F - 60.3 °F 55% 29.95 in 10.0 mi Calm Calm - N/A   Clear
12:55 AM 76.6 °F - 61.3 °F 59% 29.95 in 10.0 mi Calm Calm - N/A   Clear
1:15 AM 76.5 °F - 61.0 °F 59% 29.95 in 10.0 mi Calm Calm - N/A   Clear
1:35 AM 76.1 °F - 61.7 °F 61% 29.95 in 10.0 mi Calm Calm - N/A   Clear
1:55 AM 75.4 °F - 61.2 °F 61% 29.96 in 10.0 mi SSE 3.5 mph - N/A   Clear
2:15 AM 74.3 °F - 62.1 °F 65% 29.96 in 10.0 mi Calm Calm - N/A   Clear
2:35 AM 72.5 °F - 62.8 °F 71% 29.96 in 10.0 mi Calm Calm - N/A   Clear
2:55 AM 73.6 °F - 62.8 °F 69% 29.97 in 10.0 mi Calm Calm - N/A   Clear
3:15 AM 70.5 °F - 63.7 °F 79% 29.96 in 10.0 mi Calm Calm - N/A   Clear
3:35 AM 69.8 °F - 63.9 °F 81% 29.97 in 10.0 mi Calm Calm - N/A   Clear
3:55 AM 70.0 °F - 63.0 °F 78% 29.97 in 10.0 mi Calm Calm - N/A   Clear
4:15 AM 70.0 °F - 62.6 °F 77% 29.97 in 10.0 mi Calm Calm - N/A   Clear
4:35 AM 69.4 °F - 62.2 °F 78% 29.98 in 10.0 mi Calm Calm - N/A   Clear
4:55 AM 68.4 °F - 62.6 °F 82% 29.99 in 10.0 mi Calm Calm - N/A   Clear
5:15 AM 67.6 °F - 62.6 °F 84% 29.99 in 10.0 mi SE 4.6 mph - N/A   Clear
5:35 AM 67.8 °F - 63.0 °F 84% 29.99 in 10.0 mi SE 3.5 mph - N/A   Clear
5:55 AM 69.1 °F - 62.6 °F 80% 29.99 in 10.0 mi Calm Calm - N/A   Clear
6:15 AM 69.8 °F - 61.7 °F 75% 29.99 in 10.0 mi Calm Calm - N/A   Clear
6:35 AM 66.9 °F - 62.2 °F 85% 30.00 in 10.0 mi Calm Calm - N/A   Clear
6:55 AM 66.2 °F - 62.6 °F 88% 30.01 in 5.0 mi Calm Calm - N/A   Clear
7:15 AM 66.9 °F - 62.8 °F 87% 30.02 in 7.0 mi Calm Calm - N/A   Clear
7:35 AM 68.2 °F - 62.8 °F 83% 30.02 in 10.0 mi Calm Calm - N/A   Clear
7:55 AM 68.9 °F - 63.7 °F 83% 30.02 in 10.0 mi Calm Calm - N/A   Clear
8:15 AM 71.4 °F - 64.4 °F 78% 30.03 in 10.0 mi Calm Calm - N/A   Clear
8:35 AM 73.8 °F - 63.5 °F 70% 30.04 in 10.0 mi Calm Calm - N/A   Clear
8:55 AM 76.3 °F - 63.7 °F 65% 30.04 in 10.0 mi Calm Calm - N/A   Clear
9:15 AM 79.5 °F - 64.4 °F 60% 30.05 in 10.0 mi Calm Calm - N/A   Clear
9:35 AM 81.9 °F 83.5 °F 64.9 °F 56% 30.05 in 10.0 mi Calm Calm - N/A   Clear
9:55 AM 83.3 °F 84.8 °F 64.6 °F 53% 30.05 in 10.0 mi Calm Calm - N/A   Clear
10:15 AM 84.6 °F 86.1 °F 64.8 °F 51% 30.05 in 10.0 mi Calm Calm - N/A   Clear
10:35 AM 86.4 °F 87.6 °F 63.7 °F 47% 30.05 in 10.0 mi Calm Calm - N/A   Clear
10:55 AM 87.6 °F 88.2 °F 62.6 °F 43% 30.05 in 10.0 mi SE 3.5 mph - N/A   Clear
11:15 AM 88.7 °F 89.1 °F 62.2 °F 41% 30.05 in 10.0 mi ESE 5.8 mph - N/A   Clear
11:35 AM 89.2 °F 89.0 °F 60.6 °F 38% 30.04 in 10.0 mi ESE 5.8 mph 16.1 mph N/A   Scattered Clouds
11:55 AM 91.2 °F 90.8 °F 59.7 °F 35% 30.04 in 10.0 mi South 9.2 mph - N/A   Scattered Clouds
12:15 PM 90.5 °F 90.1 °F 59.9 °F 36% 30.04 in 10.0 mi SSW 4.6 mph - N/A   Mostly Cloudy
12:35 PM 92.5 °F 90.7 °F 56.3 °F 29% 30.03 in 10.0 mi ESE 8.1 mph - N/A   Mostly Cloudy
12:55 PM 92.3 °F 91.0 °F 57.7 °F 31% 30.02 in 10.0 mi SE 9.2 mph - N/A   Scattered Clouds
1:15 PM 91.6 °F 90.4 °F 57.6 °F 32% 30.02 in 10.0 mi South 4.6 mph - N/A   Mostly Cloudy
1:35 PM 91.9 °F 90.0 °F 55.6 °F 29% 30.02 in 10.0 mi Calm Calm - N/A   Scattered Clouds
1:55 PM 93.4 °F 91.3 °F 54.9 °F 27% 30.01 in 10.0 mi SSE 10.4 mph - N/A   Scattered Clouds
2:15 PM 94.5 °F 92.3 °F 54.9 °F 26% 30.00 in 10.0 mi South 11.5 mph 16.1 mph N/A   Mostly Cloudy
2:35 PM 95.2 °F 93.0 °F 54.0 °F 25% 30.00 in 10.0 mi SE 9.2 mph - N/A   Mostly Cloudy
2:55 PM 95.5 °F 93.4 °F 54.0 °F 25% 29.99 in 10.0 mi South 10.4 mph 16.1 mph N/A   Scattered Clouds
3:15 PM 95.7 °F 93.4 °F 53.1 °F 24% 29.98 in 10.0 mi SE 3.5 mph - N/A   Scattered Clouds
3:35 PM 93.9 °F - 52.0 °F 24% 29.98 in 10.0 mi SE 9.2 mph - N/A   Scattered Clouds
3:55 PM 95.2 °F - 50.5 °F 22% 29.97 in 10.0 mi ESE 10.4 mph - N/A   Scattered Clouds
4:15 PM 96.8 °F - 51.1 °F 21% 29.96 in 10.0 mi SE 6.9 mph - N/A   Scattered Clouds
4:35 PM 97.0 °F - 48.9 °F 19% 29.95 in 10.0 mi SE 12.7 mph 17.3 mph N/A   Scattered Clouds
4:55 PM 96.4 °F - 48.6 °F 20% 29.95 in 10.0 mi East 6.9 mph - N/A   Scattered Clouds
5:15 PM 96.3 °F - 50.2 °F 21% 29.95 in 10.0 mi East 9.2 mph - N/A   Clear
5:35 PM 95.9 °F - 44.2 °F 17% 29.95 in 10.0 mi SSE 6.9 mph - N/A   Clear
5:55 PM 95.2 °F - 49.6 °F 21% 29.95 in 10.0 mi East 8.1 mph - N/A   Clear
6:15 PM 95.0 °F - 48.0 °F 20% 29.95 in 10.0 mi SE 5.8 mph - N/A   Clear
6:35 PM 94.3 °F - 48.9 °F 21% 29.95 in 10.0 mi SE 8.1 mph - N/A   Clear
6:55 PM 92.8 °F - 48.0 °F 21% 29.95 in 10.0 mi SSE 8.1 mph - N/A   Clear
7:15 PM 90.9 °F - 48.7 °F 23% 29.95 in 10.0 mi SE 5.8 mph - N/A   Clear
7:35 PM 88.3 °F - 49.6 °F 26% 29.95 in 10.0 mi SE 4.6 mph - N/A   Clear
7:55 PM 87.8 °F - 50.0 °F 27% 29.95 in 10.0 mi Calm Calm - N/A   Clear
8:15 PM 86.2 °F - 50.0 °F 29% 29.95 in 10.0 mi Calm Calm - N/A   Clear
8:35 PM 84.4 °F - 52.0 °F 33% 29.96 in 10.0 mi Calm Calm - N/A   Clear
8:55 PM 82.9 °F - 52.9 °F 35% 29.98 in 10.0 mi ESE 3.5 mph - N/A   Clear
9:15 PM 81.1 °F 80.7 °F 54.3 °F 39% 29.99 in 10.0 mi Calm Calm - N/A   Clear
9:35 PM 80.1 °F 80.1 °F 54.9 °F 42% 29.99 in 10.0 mi Calm Calm - N/A   Clear
9:55 PM 79.3 °F - 54.5 °F 42% 29.99 in 10.0 mi Calm Calm - N/A   Clear
10:15 PM 78.4 °F - 55.2 °F 45% 30.00 in 10.0 mi ESE 3.5 mph - N/A   Clear
10:35 PM 77.9 °F - 55.0 °F 45% 30.00 in 10.0 mi Calm Calm - N/A   Clear
10:55 PM 76.1 °F - 55.4 °F 49% 30.00 in 10.0 mi Calm Calm - N/A   Clear
11:15 PM 76.1 °F - 55.8 °F 49% 30.00 in 10.0 mi Calm Calm - N/A   Clear
11:35 PM 76.1 °F - 55.6 °F 49% 30.01 in 10.0 mi Calm Calm - N/A   Clear
11:55 PM 75.2 °F - 55.4 °F 50% 30.01 in 10.0 mi Calm Calm - N/A   Clear